When you browse on this site, cookies collect data to enhance your experience and personalize the content and advertising you see.
Visit our Privacy Policy to learn more. By continuing to use the site, you agree to this use of cookies and data.
  • In Netherlands
  • List of Countries
  • For 7 days
  • Water Temperature
  • Satellite Maps
  • Weather Map
  • Weather Widgets
  • user-avatar
    Login

    Hourly Weather Cochabamba

    Today, 17 July, Wednesday

    Time Temperature Precipitation Wind Pressure Humidity
    00:00 +12°C° 0 mm 1 mps 555 mmHg 82%
    01:00 +12°C° 0 mm 1 mps 555 mmHg 82%
    02:00 +11°C° 0 mm 1 mps 555 mmHg 82%
    03:00 +11°C° 0 mm 1 mps 554 mmHg 84%
    04:00 +10°C° 0 mm 1 mps 554 mmHg 85%
    05:00 +9°C° 0 mm 0 mps 554 mmHg 87%
    06:00 +10°C° 0 mm 0 mps 554 mmHg 82%
    07:00 +11°C° 0 mm 0 mps 555 mmHg 77%
    08:00 +12°C° 0 mm 0 mps 556 mmHg 72%
    09:00 +14°C° 0 mm 1 mps 557 mmHg 65%
    10:00 +16°C° 0 mm 1 mps 558 mmHg 59%
    11:00 +19°C° 0 mm 1 mps 558 mmHg 53%
    12:00 +19°C° 0.2 mm 1 mps 558 mmHg 52%
    13:00 +20°C° 0.2 mm 1 mps 558 mmHg 51%
    14:00 +20°C° 0.2 mm 1 mps 558 mmHg 50%
    15:00 +19°C° 0.2 mm 2 mps 557 mmHg 52%
    16:00 +19°C° 0.2 mm 3 mps 556 mmHg 54%
    17:00 +18°C° 0.2 mm 3 mps 556 mmHg 57%
    18:00 +17°C° 0.2 mm 3 mps 556 mmHg 62%
    19:00 +16°C° 0.2 mm 2 mps 556 mmHg 67%
    20:00 +15°C° 0.2 mm 2 mps 556 mmHg 72%
    21:00 +15°C° 0.1 mm 1 mps 556 mmHg 73%
    22:00 +14°C° 0.1 mm 1 mps 556 mmHg 74%
    23:00 +14°C° 0.1 mm 1 mps 556 mmHg 75%

    Tomorrow, 18 July, Thursday

    Time Temperature Precipitation Wind Pressure Humidity
    00:00 +13°C° 0.5 mm 1 mps 556 mmHg 77%
    01:00 +13°C° 0.5 mm 1 mps 556 mmHg 79%
    02:00 +13°C° 0.5 mm 1 mps 556 mmHg 81%
    03:00 +13°C° 1.2 mm 2 mps 555 mmHg 82%
    04:00 +12°C° 1.2 mm 2 mps 555 mmHg 84%
    05:00 +12°C° 1.2 mm 2 mps 555 mmHg 86%
    06:00 +12°C° 1 mm 2 mps 555 mmHg 85%
    07:00 +10°C° 1 mm 2 mps 555 mmHg 84%
    08:00 +10°C° 1 mm 2 mps 555 mmHg 83%
    09:00 +10°C° 0.2 mm 2 mps 555 mmHg 81%
    10:00 +12°C° 0.2 mm 1 mps 556 mmHg 79%
    11:00 +12°C° 0.2 mm 1 mps 556 mmHg 78%
    12:00 +13°C° 0.1 mm 1 mps 556 mmHg 71%
    13:00 +15°C° 0.1 mm 1 mps 556 mmHg 64%
    14:00 +16°C° 0.1 mm 1 mps 556 mmHg 57%
    15:00 +16°C° 0.1 mm 1 mps 556 mmHg 56%
    16:00 +18°C° 0.1 mm 1 mps 556 mmHg 56%
    17:00 +17°C° 0.1 mm 2 mps 556 mmHg 55%
    18:00 +16°C° 0 mm 1 mps 555 mmHg 58%
    19:00 +15°C° 0 mm 1 mps 555 mmHg 62%
    20:00 +14°C° 0 mm 1 mps 555 mmHg 66%
    21:00 +13°C° 0 mm 1 mps 555 mmHg 67%
    22:00 +13°C° 0 mm 1 mps 555 mmHg 68%
    23:00 +12°C° 0 mm 1 mps 555 mmHg 69%

    Day after tomorrow, 19 July, Friday

    Time Temperature Precipitation Wind Pressure Humidity
    00:00 +12°C° 0 mm 1 mps 555 mmHg 69%
    01:00 +11°C° 0 mm 1 mps 554 mmHg 70%
    02:00 +10°C° 0 mm 0 mps 554 mmHg 70%
    03:00 +10°C° 0 mm 0 mps 554 mmHg 70%
    04:00 +9°C° 0 mm 0 mps 553 mmHg 70%
    05:00 +9°C° 0 mm 0 mps 553 mmHg 70%
    06:00 +10°C° 0 mm 0 mps 554 mmHg 68%
    07:00 +12°C° 0 mm 1 mps 555 mmHg 65%
    08:00 +13°C° 0 mm 1 mps 556 mmHg 62%
    09:00 +14°C° 0.1 mm 1 mps 556 mmHg 59%
    10:00 +16°C° 0.1 mm 1 mps 557 mmHg 56%
    11:00 +18°C° 0.1 mm 1 mps 557 mmHg 52%
    12:00 +18°C° 0.3 mm 2 mps 557 mmHg 52%
    13:00 +18°C° 0.3 mm 2 mps 556 mmHg 52%
    14:00 +18°C° 0.3 mm 2 mps 556 mmHg 51%
    15:00 +18°C° 0.3 mm 3 mps 556 mmHg 54%
    16:00 +18°C° 0.3 mm 3 mps 555 mmHg 56%
    17:00 +17°C° 0.3 mm 4 mps 554 mmHg 58%
    18:00 +16°C° 0.1 mm 3 mps 554 mmHg 63%
    19:00 +14°C° 0.1 mm 3 mps 554 mmHg 68%
    20:00 +13°C° 0.1 mm 2 mps 554 mmHg 73%
    21:00 +13°C° 0 mm 2 mps 554 mmHg 74%
    22:00 +13°C° 0 mm 2 mps 554 mmHg 74%
    23:00 +13°C° 0 mm 2 mps 554 mmHg 75%

    20 July, Saturday

    Time Temperature Precipitation Wind Pressure Humidity
    00:00 +12°C° 0 mm 2 mps 554 mmHg 75%
    01:00 +12°C° 0 mm 2 mps 553 mmHg 76%
    02:00 +11°C° 0 mm 1 mps 553 mmHg 77%
    03:00 +11°C° 0 mm 1 mps 553 mmHg 77%
    04:00 +11°C° 0 mm 1 mps 552 mmHg 77%
    05:00 +11°C° 0 mm 1 mps 552 mmHg 77%
    06:00 +11°C° 0 mm 1 mps 553 mmHg 74%
    07:00 +12°C° 0 mm 1 mps 553 mmHg 70%
    08:00 +13°C° 0 mm 1 mps 554 mmHg 67%
    09:00 +14°C° 0 mm 1 mps 555 mmHg 62%
    10:00 +16°C° 0 mm 1 mps 555 mmHg 56%
    11:00 +18°C° 0 mm 1 mps 556 mmHg 50%
    12:00 +18°C° 0.2 mm 2 mps 556 mmHg 47%
    13:00 +19°C° 0.2 mm 2 mps 556 mmHg 45%
    14:00 +20°C° 0.2 mm 3 mps 555 mmHg 42%
    15:00 +20°C° 0.2 mm 3 mps 555 mmHg 44%
    16:00 +19°C° 0.2 mm 4 mps 554 mmHg 47%
    17:00 +19°C° 0.2 mm 4 mps 553 mmHg 49%
    18:00 +17°C° 0 mm 3 mps 553 mmHg 53%
    19:00 +16°C° 0 mm 3 mps 553 mmHg 58%
    20:00 +14°C° 0 mm 2 mps 553 mmHg 62%
    21:00 +14°C° 0 mm 2 mps 553 mmHg 60%
    22:00 +14°C° 0 mm 2 mps 553 mmHg 59%
    23:00 +13°C° 0 mm 1 mps 553 mmHg 57%

    21 July, Sunday

    Time Temperature Precipitation Wind Pressure Humidity
    00:00 +13°C° 0 mm 1 mps 553 mmHg 56%
    01:00 +12°C° 0 mm 1 mps 552 mmHg 56%
    02:00 +12°C° 0 mm 1 mps 552 mmHg 55%
    03:00 +11°C° 0 mm 1 mps 552 mmHg 54%
    04:00 +11°C° 0 mm 1 mps 551 mmHg 52%
    05:00 +10°C° 0 mm 1 mps 551 mmHg 51%
    06:00 +11°C° 0 mm 1 mps 552 mmHg 48%
    07:00 +12°C° 0 mm 1 mps 553 mmHg 46%
    08:00 +14°C° 0 mm 1 mps 554 mmHg 44%
    09:00 +15°C° 0 mm 1 mps 555 mmHg 40%
    10:00 +18°C° 0 mm 1 mps 555 mmHg 36%
    11:00 +20°C° 0 mm 1 mps 556 mmHg 33%
    12:00 +19°C° 0 mm 2 mps 556 mmHg 34%
    13:00 +20°C° 0 mm 2 mps 555 mmHg 35%
    14:00 +21°C° 0 mm 2 mps 555 mmHg 37%
    15:00 +20°C° 0.1 mm 2 mps 554 mmHg 40%
    16:00 +20°C° 0.1 mm 3 mps 554 mmHg 44%
    17:00 +19°C° 0.1 mm 3 mps 553 mmHg 47%
    18:00 +18°C° 0 mm 3 mps 553 mmHg 54%
    19:00 +16°C° 0 mm 3 mps 552 mmHg 60%
    20:00 +13°C° 0 mm 3 mps 552 mmHg 67%
    21:00 +14°C° 0 mm 2 mps 552 mmHg 67%
    22:00 +14°C° 0 mm 2 mps 552 mmHg 67%
    23:00 +13°C° 0 mm 2 mps 552 mmHg 67%

    22 July, Monday

    Time Temperature Precipitation Wind Pressure Humidity
    00:00 +13°C° 0 mm 2 mps 552 mmHg 69%
    01:00 +12°C° 0 mm 2 mps 552 mmHg 71%
    02:00 +12°C° 0 mm 2 mps 551 mmHg 73%
    03:00 +10°C° 0 mm 2 mps 551 mmHg 74%
    04:00 +11°C° 0 mm 1 mps 551 mmHg 74%
    05:00 +11°C° 0 mm 1 mps 551 mmHg 75%
    06:00 +11°C° 0 mm 1 mps 552 mmHg 72%
    07:00 +12°C° 0 mm 1 mps 553 mmHg 70%
    08:00 +13°C° 0 mm 2 mps 553 mmHg 68%
    09:00 +15°C° 0 mm 1 mps 554 mmHg 62%
    10:00 +16°C° 0 mm 1 mps 555 mmHg 57%
    11:00 +19°C° 0 mm 1 mps 556 mmHg 51%
    12:00 +19°C° 0.1 mm 2 mps 555 mmHg 51%
    13:00 +19°C° 0.1 mm 3 mps 555 mmHg 51%
    14:00 +20°C° 0.1 mm 4 mps 554 mmHg 51%
    15:00 +20°C° 0 mm 3 mps 554 mmHg 52%
    16:00 +19°C° 0 mm 3 mps 553 mmHg 53%
    17:00 +19°C° 0 mm 3 mps 553 mmHg 54%
    18:00 +17°C° 0 mm 3 mps 553 mmHg 61%
    19:00 +16°C° 0 mm 3 mps 552 mmHg 67%
    20:00 +13°C° 0 mm 3 mps 552 mmHg 73%
    21:00 +13°C° 0 mm 3 mps 552 mmHg 74%
    22:00 +13°C° 0 mm 3 mps 552 mmHg 76%
    23:00 +12°C° 0 mm 3 mps 552 mmHg 78%
    Show more